User: anonymous   Login
Location: Cantaing
(50.1487°N, 3.1675°E)
Time: 16:53:01
(UTC+00:00)
Language:

Cosmos 1862 Rocket - Orbit

View from above orbital plane
View from above orbital plane
View from above satellite
View from above satellite

Ground track
Ground track

The orbit is defined by the following mean orbital elements,

1 18153U          26064.23262303 +.00000000 +00000-0 +91928-4 0 00003
2 18153  82.5029 353.2306 0021528  32.1148 328.1375 14.85623384    08
Epoch (UTC): 05 March 2026 05:34:58
Eccentricity: 0.0021528
inclination: 82.5029°
perigee height: 597 km
apogee height: 627 km
right ascension of ascending node: 353.2306°
argument of perigee: 32.1148°
revolutions per day: 14.85623384
mean anomaly at epoch: 328.1375°

The dashed part of the orbit path shows where the satellite is in the earth's shadow,  

DLR